Le nostre stazioni meteo in Italia

Pubblicità
Il mio iltempo24.it
Lamezia Terme, Italia (16362): Temperatura & dewpoint: 19.06.2019 20:00:00 - 25.06.2019 20:00:00 (CEST)Lamezia Terme, Italia (16362): velocità del vento: 19.06.2019 20:00:00 - 25.06.2019 20:00:00 (CEST)Lamezia Terme, Italia (16362): direzione del vento: 19.06.2019 20:00:00 - 25.06.2019 20:00:00 (CEST)Lamezia Terme, Italia (16362): reduced air pressure: 19.06.2019 20:00:00 - 25.06.2019 20:00:00 (CEST)Lamezia Terme, Italia (16362): visibility: 19.06.2019 20:00:00 - 25.06.2019 20:00:00 (CEST)Lamezia Terme, Italia (16362): precipitazioni: 19.06.2019 20:00:00 - 25.06.2019 20:00:00 (CEST)
Data & Tempo tt [°C] td [°C] ff [km/h] ff [kn] dd ppp [hPa] vv [km] rr [mm]
25.06.2019 20:00:00 26,6 21,3 9 5 SSO 1018,1 10 -
25.06.2019 19:00:00 28,0 21,0 13 7 OSO - 10 -
25.06.2019 18:00:00 28,0 21,0 16 9 OSO - 10 -
25.06.2019 17:00:00 29,0 20,6 22 12 OSO 1017,5 10 0,0
25.06.2019 16:00:00 28,0 20,0 18 10 SO - 10 -
25.06.2019 15:00:00 30,0 21,0 21 11 OSO - 10 -
25.06.2019 14:00:00 29,6 22,7 21 11 O 1017,4 10 -
25.06.2019 13:00:00 29,0 24,0 22 12 OSO - 10 -
25.06.2019 12:00:00 29,0 24,0 21 11 OSO - 10 -
25.06.2019 11:00:00 28,3 23,1 15 8 SO 1016,9 10 0,0
25.06.2019 10:00:00 26,0 23,0 15 8 SO - 10 -
25.06.2019 09:00:00 27,0 23,0 9 5 SO - 10 -
25.06.2019 08:00:00 25,2 21,5 4 2 SSO 1016,9 10 -
25.06.2019 07:00:00 23,0 19,0 5 3 NNE - 10 -
25.06.2019 06:00:00 22,0 20,0 5 3 ENE - 10 -
25.06.2019 05:00:00 24,0 21,4 8 4 SO 1016,1 10 0,0
25.06.2019 04:00:00 24,0 21,0 8 4 S - 10 -
25.06.2019 03:00:00 - - - - - - - -
25.06.2019 02:00:00 24,1 21,0 11 6 SSO 1016,6 10 -
25.06.2019 01:00:00 24,0 21,0 9 5 S - 10 -
25.06.2019 00:00:00 25,0 22,0 5 3 S - 10 -
24.06.2019 23:00:00 25,0 21,9 4 2 SSO 1017,2 10 0,0
24.06.2019 22:00:00 25,0 22,0 8 4 OSO - 10 -
24.06.2019 21:00:00 25,0 22,0 8 4 SO - 10 -
24.06.2019 20:00:00 25,9 22,2 9 5 OSO 1015,8 10 -
24.06.2019 19:00:00 27,0 22,0 16 9 OSO - 10 -
24.06.2019 18:00:00 28,0 22,0 16 9 O - 10 -
24.06.2019 17:00:00 27,8 21,6 18 10 OSO 1015,0 10 0,0
24.06.2019 16:00:00 29,0 21,0 18 10 OSO - 10 -
24.06.2019 15:00:00 29,0 21,0 21 11 O - 10 -
24.06.2019 14:00:00 29,7 20,3 16 9 O 1015,3 15 -
24.06.2019 13:00:00 29,0 21,0 13 7 O - 10 -
24.06.2019 12:00:00 28,0 22,0 15 8 OSO - 10 -
24.06.2019 11:00:00 27,4 21,5 13 7 OSO 1016,1 15 0,0
24.06.2019 10:00:00 27,0 22,0 11 6 OSO - 10 -
24.06.2019 09:00:00 26,0 22,0 11 6 SO - 10 -
24.06.2019 08:00:00 24,8 22,0 5 3 SO 1015,9 10 -
24.06.2019 07:00:00 22,0 19,0 2 1 - - 10 -
24.06.2019 06:00:00 19,0 17,0 4 2 NNE - 10 -
24.06.2019 05:00:00 19,8 18,1 4 2 - 1015,4 10 0,0
24.06.2019 04:00:00 20,0 18,0 4 2 - - 10 -
24.06.2019 03:00:00 20,0 18,0 4 2 - - 10 -
24.06.2019 02:00:00 21,9 18,2 2 1 N 1015,9 10 -
24.06.2019 01:00:00 22,0 20,0 4 2 - - 10 -
24.06.2019 00:00:00 24,0 22,0 5 3 SO - 10 -
23.06.2019 23:00:00 24,7 22,2 8 4 SO 1015,6 10 0,0
23.06.2019 22:00:00 25,0 22,0 13 7 OSO - 10 -
23.06.2019 21:00:00 25,0 22,0 16 9 OSO - 10 -
23.06.2019 20:00:00 25,8 21,6 13 7 SO 1014,6 10 -
23.06.2019 19:00:00 27,0 21,0 16 9 SO - 10 -
23.06.2019 18:00:00 29,0 20,0 16 9 SSO - 10 -
23.06.2019 17:00:00 29,9 21,6 13 7 SO 1014,0 10 0,0
23.06.2019 16:00:00 31,0 22,0 21 11 OSO - 10 -
23.06.2019 15:00:00 30,0 21,0 22 12 O - 10 -
23.06.2019 14:00:00 30,3 20,7 16 9 OSO 1014,4 10 -
23.06.2019 13:00:00 29,0 20,0 15 8 OSO - 10 -
23.06.2019 12:00:00 31,0 19,0 9 5 O - 10 -
23.06.2019 11:00:00 29,9 19,0 9 5 NO 1014,8 10 0,0
23.06.2019 10:00:00 29,0 21,0 15 8 SSO - 10 -
23.06.2019 09:00:00 26,0 21,0 9 5 S - 10 -
23.06.2019 08:00:00 24,2 20,9 8 4 ONO 1014,8 10 -
23.06.2019 07:00:00 23,0 20,0 15 8 - - 8 -
23.06.2019 06:00:00 22,0 19,0 5 3 NNE - 10 -
23.06.2019 05:00:00 20,6 15,9 5 3 ENE 1013,7 10 0,0
23.06.2019 04:00:00 23,0 16,0 8 4 E - 10 -
23.06.2019 03:00:00 25,0 15,0 9 5 ENE - 10 -
23.06.2019 02:00:00 25,1 15,7 13 7 ENE 1013,0 10 -
23.06.2019 01:00:00 23,0 18,0 9 5 ENE - 10 -
23.06.2019 00:00:00 24,0 18,0 5 3 E - 10 -
22.06.2019 23:00:00 24,8 17,9 9 5 ENE 1014,1 10 0,0
22.06.2019 22:00:00 26,0 15,0 11 6 ENE - 10 -
22.06.2019 21:00:00 28,0 15,0 15 8 ENE - 10 -
22.06.2019 20:00:00 29,5 16,9 18 10 ENE 1013,9 10 -
22.06.2019 19:00:00 31,0 17,0 21 11 ENE - 10 -
22.06.2019 18:00:00 32,0 16,0 26 14 ENE - 10 -
22.06.2019 17:00:00 32,5 15,7 29 16 NE 1014,0 10 0,0
22.06.2019 16:00:00 - - - - - - - -
22.06.2019 15:00:00 35,0 6,0 4 2 - - 10 -
22.06.2019 14:00:00 32,3 8,3 8 4 ONO 1016,2 10 -
22.06.2019 13:00:00 30,0 17,0 13 7 OSO - 10 -
22.06.2019 12:00:00 30,0 17,0 22 12 OSO - 10 -
22.06.2019 11:00:00 31,0 17,0 28 15 O 1016,7 10 0,0
22.06.2019 10:00:00 32,0 13,0 18 10 O - 10 -
22.06.2019 09:00:00 29,0 16,0 15 8 ENE - 10 -
22.06.2019 08:00:00 24,7 16,2 11 6 E 1015,3 10 -
22.06.2019 07:00:00 19,0 16,0 13 7 ENE - 10 -
22.06.2019 06:00:00 17,0 16,0 13 7 ENE - 10 -
22.06.2019 05:00:00 16,8 15,3 9 5 E 1015,5 10 0,0
22.06.2019 04:00:00 18,0 16,0 8 4 ENE - 10 -
22.06.2019 03:00:00 - - - - - - - -
22.06.2019 02:00:00 19,0 17,0 8 4 E - 10 -
22.06.2019 01:00:00 20,0 18,0 9 5 ENE - 10 -
22.06.2019 00:00:00 21,0 19,0 9 5 NE - 10 -
21.06.2019 23:00:00 21,1 19,6 5 3 E 1015,8 10 0,0
21.06.2019 22:00:00 23,0 21,0 9 5 E - 10 -
21.06.2019 21:00:00 25,0 22,0 5 3 NNE - 10 -
21.06.2019 20:00:00 26,4 22,6 2 1 N 1015,1 10 -
21.06.2019 19:00:00 27,0 23,0 11 6 SO - 10 -
21.06.2019 18:00:00 28,0 23,0 13 7 SO - 10 -
21.06.2019 17:00:00 29,4 19,8 13 7 OSO 1015,5 10 0,0
21.06.2019 16:00:00 30,0 19,0 11 6 SO - 10 -
21.06.2019 15:00:00 30,0 22,0 26 14 O - 10 -
21.06.2019 14:00:00 31,1 17,2 9 5 SO 1015,1 10 -
21.06.2019 13:00:00 30,0 17,0 13 7 O - 10 -
21.06.2019 12:00:00 30,0 18,0 8 4 OSO - 10 -
21.06.2019 11:00:00 27,3 19,1 4 2 - 1016,1 10 0,0
21.06.2019 10:00:00 - - - - - - - -
21.06.2019 09:00:00 25,0 21,0 15 8 OSO - 10 -
21.06.2019 08:00:00 24,1 19,6 2 1 N 1015,8 10 -
21.06.2019 07:00:00 19,0 19,0 8 4 ENE - 10 -
21.06.2019 06:00:00 - - - - - - - -
21.06.2019 05:00:00 16,9 16,4 9 5 ENE 1015,0 10 0,0
21.06.2019 04:00:00 17,0 16,0 9 5 E - 10 -
21.06.2019 03:00:00 17,0 16,0 8 4 E - 10 -
21.06.2019 02:00:00 16,7 15,7 8 4 ENE 1015,6 10 -
21.06.2019 01:00:00 18,0 17,0 4 2 - - 10 -
21.06.2019 00:00:00 20,0 18,0 4 2 - - 10 -
20.06.2019 23:00:00 20,4 18,2 2 1 - 1015,6 10 0,0
20.06.2019 22:00:00 22,0 19,0 8 4 SO - 10 -
20.06.2019 21:00:00 24,0 19,0 8 4 SO - 10 -
20.06.2019 20:00:00 25,0 19,1 11 6 OSO 1014,3 10 -
20.06.2019 19:00:00 26,0 19,0 13 7 OSO - 10 -
20.06.2019 18:00:00 27,0 19,0 15 8 O - 10 -
20.06.2019 17:00:00 27,2 18,6 11 6 OSO 1014,2 10 0,0
20.06.2019 16:00:00 27,0 18,0 21 11 O - 10 -
20.06.2019 15:00:00 28,0 20,0 22 12 O - 10 -
20.06.2019 14:00:00 27,1 18,7 22 12 OSO 1015,4 10 0,0
20.06.2019 13:00:00 27,0 19,0 21 11 O - 10 -
20.06.2019 12:00:00 27,0 19,0 18 10 O - 10 -
20.06.2019 11:00:00 26,1 18,6 15 8 OSO 1015,2 10 -
20.06.2019 10:00:00 25,0 19,0 15 8 OSO - 10 -
20.06.2019 09:00:00 25,0 20,0 9 5 O - 10 -
20.06.2019 08:00:00 25,3 18,5 0 0 N 1015,0 10 -
20.06.2019 07:00:00 20,0 18,0 5 3 NNE - 10 -
20.06.2019 06:00:00 19,0 16,0 4 2 NNE - 10 -
20.06.2019 05:00:00 19,0 16,0 5 3 ENE - 10 -
20.06.2019 04:00:00 18,0 16,0 4 2 ENE - 10 -
20.06.2019 03:00:00 18,0 16,0 5 3 E - 10 -
20.06.2019 02:00:00 19,0 16,0 4 2 ENE - 10 -
20.06.2019 01:00:00 20,0 17,0 4 2 - - 10 -
20.06.2019 00:00:00 21,0 17,0 4 2 - - 10 -
19.06.2019 23:00:00 24,0 20,0 11 6 OSO - 10 -
19.06.2019 22:00:00 24,0 21,0 13 7 O - 10 -
19.06.2019 21:00:00 24,0 21,0 16 9 O - 10 -
19.06.2019 20:00:00 25,0 21,0 16 9 O - 10 -

tt = Temperatura
td = dewpoint
ff = velocità del vento
dd = direzione del vento
ppp = reduced air pressure
vv = visibility
rr = precipitazioni

Stazioni seguenti

WeatherPro
AMSI
MeteoEarth